Time,TemperatureF,DewpointF,PressureIn,WindDirection,WindDirectionDegrees,WindSpeedMPH,WindSpeedGustMPH,Humidity,HourlyPrecipIn,Conditions,Clouds,dailyrainin,SoftwareType,DateUTC
2013-01-24 00:03:00,-0.6,-9.8,30.71,NE,45,3.0,14.0,64,0.00,,,0.00,Weather View 32 v70,2013-01-24 06:03:00,
2013-01-24 00:08:00,-0.7,-9.9,30.71,NE,45,4.0,12.0,64,0.00,,,0.00,Weather View 32 v70,2013-01-24 06:08:00,
2013-01-24 00:13:00,-0.9,-10.4,30.72,North,360,6.0,12.0,63,0.00,,,0.00,Weather View 32 v70,2013-01-24 06:13:00,
2013-01-24 00:18:00,-0.9,-10.1,30.72,NNE,22,2.0,12.0,64,0.00,,,0.00,Weather View 32 v70,2013-01-24 06:18:00,
2013-01-24 00:23:00,-1.1,-10.0,30.73,NE,45,5.0,12.0,65,0.00,,,0.00,Weather View 32 v70,2013-01-24 06:23:00,
2013-01-24 00:28:00,-1.2,-10.4,30.72,NNE,22,2.0,12.0,64,0.00,,,0.00,Weather View 32 v70,2013-01-24 06:28:00,
2013-01-24 00:33:00,-1.3,-10.2,30.73,NNE,22,2.0,12.0,65,0.00,,,0.00,Weather View 32 v70,2013-01-24 06:33:00,
2013-01-24 00:38:00,-1.5,-10.7,30.73,NE,45,2.0,12.0,64,0.00,,,0.00,Weather View 32 v70,2013-01-24 06:38:00,
2013-01-24 00:43:00,-1.5,-10.7,30.73,NNE,22,6.0,12.0,64,0.00,,,0.00,Weather View 32 v70,2013-01-24 06:43:00,
2013-01-24 00:48:00,-1.7,-10.6,30.73,NNE,22,2.0,12.0,65,0.00,,,0.00,Weather View 32 v70,2013-01-24 06:48:00,
2013-01-24 00:53:00,-1.7,-10.3,30.73,NE,45,2.0,12.0,66,0.00,,,0.00,Weather View 32 v70,2013-01-24 06:53:00,
2013-01-24 00:58:00,-1.9,-10.5,30.73,NE,45,1.0,12.0,66,0.00,,,0.00,Weather View 32 v70,2013-01-24 06:58:00,
2013-01-24 01:03:00,-1.9,-10.5,30.73,NE,45,2.0,12.0,66,0.00,,,0.00,Weather View 32 v70,2013-01-24 07:03:00,
2013-01-24 01:08:00,-2.1,-10.7,30.72,NE,45,3.0,11.0,66,0.00,,,0.00,Weather View 32 v70,2013-01-24 07:08:00,
2013-01-24 01:13:00,-2.2,-10.8,30.73,NNE,22,0.0,10.0,66,0.00,,,0.00,Weather View 32 v70,2013-01-24 07:13:00,
2013-01-24 01:18:00,-2.3,-10.8,30.73,NE,45,7.0,8.0,66,0.00,,,0.00,Weather View 32 v70,2013-01-24 07:18:00,
2013-01-24 01:23:00,-2.4,-10.9,30.73,North,360,2.0,8.0,66,0.00,,,0.00,Weather View 32 v70,2013-01-24 07:23:00,
2013-01-24 01:28:00,-2.5,-10.7,30.73,NNE,22,2.0,8.0,67,0.00,,,0.00,Weather View 32 v70,2013-01-24 07:28:00,
2013-01-24 01:33:00,-2.6,-11.1,30.73,NNE,22,2.0,8.0,66,0.00,,,0.00,Weather View 32 v70,2013-01-24 07:33:00,
2013-01-24 01:38:00,-2.7,-10.9,30.74,NNE,22,2.0,8.0,67,0.00,,,0.00,Weather View 32 v70,2013-01-24 07:38:00,
2013-01-24 01:43:00,-2.8,-11.0,30.74,NNE,22,2.0,8.0,67,0.00,,,0.00,Weather View 32 v70,2013-01-24 07:43:00,
2013-01-24 01:48:00,-2.8,-10.7,30.75,NNE,22,2.0,7.0,68,0.00,,,0.00,Weather View 32 v70,2013-01-24 07:48:00,
2013-01-24 01:53:00,-2.9,-10.8,30.74,NE,45,1.0,7.0,68,0.00,,,0.00,Weather View 32 v70,2013-01-24 07:53:00,
2013-01-24 01:58:00,-2.9,-10.8,30.74,NE,45,1.0,7.0,68,0.00,,,0.00,Weather View 32 v70,2013-01-24 07:58:00,
2013-01-24 02:03:00,-3.1,-10.7,30.74,NE,45,2.0,7.0,69,0.00,,,0.00,Weather View 32 v70,2013-01-24 08:03:00,
2013-01-24 02:08:00,-3.2,-10.5,30.74,NE,45,2.0,7.0,70,0.00,,,0.00,Weather View 32 v70,2013-01-24 08:08:00,
2013-01-24 02:13:00,-3.2,-10.5,30.73,North,360,2.0,7.0,70,0.00,,,0.00,Weather View 32 v70,2013-01-24 08:13:00,
2013-01-24 02:18:00,-3.2,-10.5,30.75,North,360,2.0,7.0,70,0.00,,,0.00,Weather View 32 v70,2013-01-24 08:18:00,
2013-01-24 02:23:00,-3.2,-10.2,30.74,NNE,22,1.0,6.0,71,0.00,,,0.00,Weather View 32 v70,2013-01-24 08:23:00,
2013-01-24 02:28:00,-3.1,-10.1,30.74,NNE,22,2.0,6.0,71,0.00,,,0.00,Weather View 32 v70,2013-01-24 08:28:00,
2013-01-24 02:33:00,-3.1,-10.4,30.75,NNE,22,2.0,6.0,70,0.00,,,0.00,Weather View 32 v70,2013-01-24 08:33:00,
2013-01-24 02:38:00,-3.1,-10.4,30.75,NNE,22,2.0,6.0,70,0.00,,,0.00,Weather View 32 v70,2013-01-24 08:38:00,
2013-01-24 02:43:00,-3.1,-10.7,30.75,NE,45,2.0,6.0,69,0.00,,,0.00,Weather View 32 v70,2013-01-24 08:43:00,
2013-01-24 02:48:00,-3.1,-10.7,30.75,NE,45,3.0,6.0,69,0.00,,,0.00,Weather View 32 v70,2013-01-24 08:48:00,
2013-01-24 02:53:00,-3.2,-11.1,30.75,NNE,22,1.0,6.0,68,0.00,,,0.00,Weather View 32 v70,2013-01-24 08:53:00,
2013-01-24 02:58:00,-3.2,-10.8,30.75,NE,45,4.0,6.0,69,0.00,,,0.00,Weather View 32 v70,2013-01-24 08:58:00,
2013-01-24 03:03:00,-3.2,-10.8,30.75,NE,45,1.0,6.0,69,0.00,,,0.00,Weather View 32 v70,2013-01-24 09:03:00,
2013-01-24 03:08:00,-3.1,-10.4,30.75,NNE,22,2.0,6.0,70,0.00,,,0.00,Weather View 32 v70,2013-01-24 09:08:00,
2013-01-24 03:13:00,-3.1,-10.4,30.75,NE,45,2.0,7.0,70,0.00,,,0.00,Weather View 32 v70,2013-01-24 09:13:00,
2013-01-24 03:18:00,-2.9,-10.2,30.75,NE,45,2.0,7.0,70,0.00,,,0.00,Weather View 32 v70,2013-01-24 09:18:00,
2013-01-24 03:23:00,-2.9,-10.2,30.75,NNE,22,6.0,7.0,70,0.00,,,0.00,Weather View 32 v70,2013-01-24 09:23:00,
2013-01-24 03:28:00,-3.1,-10.4,30.73,NE,45,2.0,7.0,70,0.00,,,0.00,Weather View 32 v70,2013-01-24 09:28:00,
2013-01-24 03:33:00,-3.1,-10.4,30.73,NE,45,1.0,7.0,70,0.00,,,0.00,Weather View 32 v70,2013-01-24 09:33:00,
2013-01-24 03:38:00,-3.1,-10.4,30.73,NE,45,2.0,7.0,70,0.00,,,0.00,Weather View 32 v70,2013-01-24 09:38:00,
2013-01-24 03:43:00,-3.1,-10.1,30.73,ENE,67,2.0,7.0,71,0.00,,,0.00,Weather View 32 v70,2013-01-24 09:43:00,
2013-01-24 03:48:00,-3.1,-10.1,30.73,NE,45,3.0,7.0,71,0.00,,,0.00,Weather View 32 v70,2013-01-24 09:48:00,
2013-01-24 03:53:00,-3.2,-10.2,30.73,NE,45,2.0,7.0,71,0.00,,,0.00,Weather View 32 v70,2013-01-24 09:53:00,
2013-01-24 03:58:00,-3.3,-10.3,30.73,NE,45,2.0,7.0,71,0.00,,,0.00,Weather View 32 v70,2013-01-24 09:58:00,
2013-01-24 04:03:00,-3.4,-10.7,30.73,East,90,2.0,7.0,70,0.00,,,0.00,Weather View 32 v70,2013-01-24 10:03:00,
2013-01-24 04:08:00,-3.5,-10.8,30.73,NE,45,2.0,7.0,70,0.00,,,0.00,Weather View 32 v70,2013-01-24 10:08:00,
2013-01-24 04:13:00,-3.7,-10.7,30.73,East,90,2.0,6.0,71,0.00,,,0.00,Weather View 32 v70,2013-01-24 10:13:00,
2013-01-24 04:18:00,-3.8,-10.8,30.73,NE,45,2.0,7.0,71,0.00,,,0.00,Weather View 32 v70,2013-01-24 10:18:00,
2013-01-24 04:23:00,-3.8,-10.8,30.73,NE,45,1.0,7.0,71,0.00,,,0.00,Weather View 32 v70,2013-01-24 10:23:00,
2013-01-24 04:28:00,-3.8,-10.8,30.72,ENE,67,2.0,7.0,71,0.00,,,0.00,Weather View 32 v70,2013-01-24 10:28:00,
2013-01-24 04:33:00,-4.1,-10.8,30.73,NE,45,0.0,7.0,72,0.00,,,0.00,Weather View 32 v70,2013-01-24 10:33:00,
2013-01-24 04:38:00,-4.1,-10.8,30.73,East,90,1.0,7.0,72,0.00,,,0.00,Weather View 32 v70,2013-01-24 10:38:00,
2013-01-24 04:43:00,-4.1,-10.5,30.72,ENE,67,2.0,7.0,73,0.00,,,0.00,Weather View 32 v70,2013-01-24 10:43:00,
2013-01-24 04:49:00,-4.1,-10.5,30.71,ENE,67,0.0,7.0,73,0.00,,,0.00,Weather View 32 v70,2013-01-24 10:49:00,
2013-01-24 04:54:00,-4.2,-10.6,30.70,East,90,3.0,7.0,73,0.00,,,0.00,Weather View 32 v70,2013-01-24 10:54:00,
2013-01-24 04:59:00,-4.3,-10.5,30.70,East,90,2.0,7.0,74,0.00,,,0.00,Weather View 32 v70,2013-01-24 10:59:00,
2013-01-24 05:04:00,-4.2,-10.4,30.70,East,90,2.0,7.0,74,0.00,,,0.00,Weather View 32 v70,2013-01-24 11:04:00,
2013-01-24 05:09:00,-4.2,-10.1,30.69,East,90,2.0,7.0,75,0.00,,,0.00,Weather View 32 v70,2013-01-24 11:09:00,
2013-01-24 05:14:00,-4.2,-10.1,30.69,East,90,3.0,7.0,75,0.00,,,0.00,Weather View 32 v70,2013-01-24 11:14:00,
2013-01-24 05:19:00,-4.1,-9.7,30.69,ENE,67,4.0,5.0,76,0.00,,,0.00,Weather View 32 v70,2013-01-24 11:19:00,
2013-01-24 05:24:00,-4.1,-10.0,30.69,ENE,67,3.0,5.0,75,0.00,,,0.00,Weather View 32 v70,2013-01-24 11:24:00,
2013-01-24 05:29:00,-4.1,-10.3,30.69,ENE,67,2.0,5.0,74,0.00,,,0.00,Weather View 32 v70,2013-01-24 11:29:00,
2013-01-24 05:34:00,-3.8,-10.0,30.69,East,90,0.0,5.0,74,0.00,,,0.00,Weather View 32 v70,2013-01-24 11:34:00,
2013-01-24 05:39:00,-3.8,-10.0,30.70,East,90,1.0,5.0,74,0.00,,,0.00,Weather View 32 v70,2013-01-24 11:39:00,
2013-01-24 05:44:00,-3.7,-9.9,30.70,ENE,67,1.0,6.0,74,0.00,,,0.00,Weather View 32 v70,2013-01-24 11:44:00,
2013-01-24 05:49:00,-3.5,-10.0,30.70,East,90,0.0,6.0,73,0.00,,,0.00,Weather View 32 v70,2013-01-24 11:49:00,
2013-01-24 05:54:00,-3.5,-10.0,30.69,East,90,2.0,6.0,73,0.00,,,0.00,Weather View 32 v70,2013-01-24 11:54:00,
2013-01-24 05:59:00,-3.5,-10.0,30.70,East,90,1.0,6.0,73,0.00,,,0.00,Weather View 32 v70,2013-01-24 11:59:00,
2013-01-24 06:04:00,-3.6,-10.1,30.69,East,90,1.0,6.0,73,0.00,,,0.00,Weather View 32 v70,2013-01-24 12:04:00,
2013-01-24 06:09:00,-3.6,-10.1,30.69,ESE,112,1.0,7.0,73,0.00,,,0.00,Weather View 32 v70,2013-01-24 12:09:00,
2013-01-24 06:14:00,-3.7,-10.2,30.69,East,90,5.0,7.0,73,0.00,,,0.00,Weather View 32 v70,2013-01-24 12:14:00,
2013-01-24 06:19:00,-3.7,-10.2,30.69,East,90,4.0,7.0,73,0.00,,,0.00,Weather View 32 v70,2013-01-24 12:19:00,
2013-01-24 06:24:00,-3.7,-10.2,30.69,East,90,2.0,7.0,73,0.00,,,0.00,Weather View 32 v70,2013-01-24 12:24:00,
2013-01-24 06:29:00,-3.7,-10.2,30.69,East,90,1.0,7.0,73,0.00,,,0.00,Weather View 32 v70,2013-01-24 12:29:00,
2013-01-24 06:34:00,-3.6,-10.1,30.70,ESE,112,2.0,7.0,73,0.00,,,0.00,Weather View 32 v70,2013-01-24 12:34:00,
2013-01-24 06:39:00,-3.5,-10.0,30.70,East,90,2.0,7.0,73,0.00,,,0.00,Weather View 32 v70,2013-01-24 12:39:00,
2013-01-24 06:44:00,-3.6,-10.1,30.70,East,90,2.0,7.0,73,0.00,,,0.00,Weather View 32 v70,2013-01-24 12:44:00,
2013-01-24 06:49:00,-3.5,-9.7,30.70,East,90,1.0,7.0,74,0.00,,,0.00,Weather View 32 v70,2013-01-24 12:49:00,
2013-01-24 06:54:00,-3.6,-9.8,30.70,East,90,1.0,7.0,74,0.00,,,0.00,Weather View 32 v70,2013-01-24 12:54:00,
2013-01-24 06:59:00,-3.5,-9.4,30.70,East,90,1.0,7.0,75,0.00,,,0.00,Weather View 32 v70,2013-01-24 12:59:00,
2013-01-24 07:04:00,-3.5,-9.4,30.69,ENE,67,2.0,7.0,75,0.00,,,0.00,Weather View 32 v70,2013-01-24 13:04:00,
2013-01-24 07:09:00,-3.4,-9.3,30.69,East,90,1.0,7.0,75,0.00,,,0.00,Weather View 32 v70,2013-01-24 13:09:00,
2013-01-24 07:14:00,-3.5,-9.7,30.69,ESE,112,2.0,7.0,74,0.00,,,0.00,Weather View 32 v70,2013-01-24 13:14:00,
2013-01-24 07:19:00,-3.5,-9.7,30.69,East,90,5.0,6.0,74,0.00,,,0.00,Weather View 32 v70,2013-01-24 13:19:00,
2013-01-24 07:24:00,-3.5,-9.7,30.69,ESE,112,5.0,6.0,74,0.00,,,0.00,Weather View 32 v70,2013-01-24 13:24:00,
2013-01-24 07:29:00,-3.5,-9.7,30.69,East,90,2.0,7.0,74,0.00,,,0.00,Weather View 32 v70,2013-01-24 13:29:00,
2013-01-24 07:34:00,-3.3,-9.2,30.69,SE,135,4.0,7.0,75,0.00,,,0.00,Weather View 32 v70,2013-01-24 13:34:00,
2013-01-24 07:39:00,-3.2,-9.1,30.70,East,90,5.0,7.0,75,0.00,,,0.00,Weather View 32 v70,2013-01-24 13:39:00,
2013-01-24 07:44:00,-3.1,-9.3,30.70,ESE,112,4.0,7.0,74,0.00,,,0.00,Weather View 32 v70,2013-01-24 13:44:00,
2013-01-24 07:49:00,-2.9,-9.1,30.70,ESE,112,2.0,7.0,74,0.00,,,0.00,Weather View 32 v70,2013-01-24 13:49:00,
2013-01-24 07:54:00,-2.7,-8.9,30.69,East,90,4.0,7.0,74,0.00,,,0.00,Weather View 32 v70,2013-01-24 13:54:00,
2013-01-24 07:59:00,-2.6,-8.8,30.69,East,90,5.0,7.0,74,0.00,,,0.00,Weather View 32 v70,2013-01-24 13:59:00,
2013-01-24 08:04:00,-2.5,-9.0,30.70,East,90,4.0,9.0,73,0.00,,,0.00,Weather View 32 v70,2013-01-24 14:04:00,
2013-01-24 08:09:00,-2.3,-8.3,30.69,ESE,112,6.0,9.0,75,0.00,,,0.00,Weather View 32 v70,2013-01-24 14:09:00,
2013-01-24 08:14:00,-2.1,-8.3,30.68,East,90,7.0,9.0,74,0.00,,,0.00,Weather View 32 v70,2013-01-24 14:14:00,
2013-01-24 08:19:00,-2.1,-8.3,30.68,East,90,4.0,9.0,74,0.00,,,0.00,Weather View 32 v70,2013-01-24 14:19:00,
2013-01-24 08:24:00,-1.9,-8.4,30.69,ESE,112,3.0,9.0,73,0.00,,,0.00,Weather View 32 v70,2013-01-24 14:24:00,
2013-01-24 08:29:00,-1.7,-7.9,30.69,East,90,4.0,9.0,74,0.00,,,0.00,Weather View 32 v70,2013-01-24 14:29:00,
2013-01-24 08:34:00,-1.5,-7.8,30.69,East,90,2.0,9.0,74,0.00,,,0.00,Weather View 32 v70,2013-01-24 14:34:00,
2013-01-24 08:39:00,-1.3,-7.6,30.69,East,90,4.0,9.0,74,0.00,,,0.00,Weather View 32 v70,2013-01-24 14:39:00,
2013-01-24 08:44:00,-1.4,-7.9,30.68,East,90,6.0,9.0,73,0.00,,,0.00,Weather View 32 v70,2013-01-24 14:44:00,
2013-01-24 08:49:00,-1.3,-7.8,30.68,East,90,7.0,9.0,73,0.00,,,0.00,Weather View 32 v70,2013-01-24 14:49:00,
2013-01-24 08:54:00,-1.3,-7.8,30.67,East,90,7.0,9.0,73,0.00,,,0.00,Weather View 32 v70,2013-01-24 14:54:00,
2013-01-24 08:59:00,-1.1,-7.6,30.66,East,90,5.0,12.0,73,0.00,,,0.00,Weather View 32 v70,2013-01-24 14:59:00,
2013-01-24 09:04:00,-0.8,-7.4,30.66,East,90,4.0,12.0,73,0.00,,,0.00,Weather View 32 v70,2013-01-24 15:04:00,
2013-01-24 09:09:00,-0.7,-7.5,30.66,ESE,112,9.0,12.0,72,0.00,,,0.00,Weather View 32 v70,2013-01-24 15:09:00,
2013-01-24 09:14:00,-0.7,-7.8,30.66,East,90,8.0,12.0,71,0.00,,,0.00,Weather View 32 v70,2013-01-24 15:14:00,
2013-01-24 09:19:00,-0.5,-7.6,30.66,East,90,6.0,12.0,71,0.00,,,0.00,Weather View 32 v70,2013-01-24 15:19:00,
2013-01-24 09:24:00,-0.3,-7.7,30.66,East,90,5.0,15.0,70,0.00,,,0.00,Weather View 32 v70,2013-01-24 15:24:00,
2013-01-24 09:29:00,-0.3,-7.4,30.66,ESE,112,8.0,15.0,71,0.00,,,0.00,Weather View 32 v70,2013-01-24 15:29:00,
2013-01-24 09:34:00,-0.1,-7.2,30.65,ESE,112,12.0,15.0,71,0.00,,,0.00,Weather View 32 v70,2013-01-24 15:34:00,
2013-01-24 09:39:00,-0.1,-7.8,30.65,ESE,112,8.0,16.0,69,0.00,,,0.00,Weather View 32 v70,2013-01-24 15:39:00,
2013-01-24 09:44:00,0.1,-7.6,30.65,ESE,112,7.0,17.0,69,0.00,,,0.00,Weather View 32 v70,2013-01-24 15:44:00,
2013-01-24 09:49:00,0.3,-7.2,30.65,ESE,112,9.0,17.0,70,0.00,,,0.00,Weather View 32 v70,2013-01-24 15:49:00,
2013-01-24 09:54:00,0.5,-7.3,30.64,ESE,112,12.0,17.0,69,0.00,,,0.00,Weather View 32 v70,2013-01-24 15:54:00,
2013-01-24 09:59:00,0.9,-7.2,30.64,ESE,112,6.0,17.0,68,0.00,,,0.00,Weather View 32 v70,2013-01-24 15:59:00,
2013-01-24 10:04:00,0.9,-7.5,30.64,SE,135,11.0,17.0,67,0.00,,,0.00,Weather View 32 v70,2013-01-24 16:04:00,
2013-01-24 10:09:00,1.1,-7.0,30.64,SE,135,11.0,17.0,68,0.00,,,0.00,Weather View 32 v70,2013-01-24 16:09:00,
2013-01-24 10:14:00,1.3,-6.8,30.66,SE,135,4.0,17.0,68,0.00,,,0.00,Weather View 32 v70,2013-01-24 16:14:00,
2013-01-24 10:19:00,1.8,-6.6,30.66,SE,135,7.0,17.0,67,0.00,,,0.00,Weather View 32 v70,2013-01-24 16:19:00,
2013-01-24 10:24:00,1.7,-6.7,30.66,ESE,112,7.0,17.0,67,0.00,,,0.00,Weather View 32 v70,2013-01-24 16:24:00,
2013-01-24 10:29:00,2.2,-5.9,30.66,SSE,157,8.0,17.0,68,0.00,,,0.00,Weather View 32 v70,2013-01-24 16:29:00,
2013-01-24 10:34:00,2.4,-6.3,30.66,SE,135,9.0,17.0,66,0.00,,,0.00,Weather View 32 v70,2013-01-24 16:34:00,
2013-01-24 10:39:00,2.4,-6.3,30.65,SE,135,12.0,17.0,66,0.00,,,0.00,Weather View 32 v70,2013-01-24 16:39:00,
2013-01-24 10:44:00,2.5,-6.3,30.64,ESE,112,11.0,17.0,66,0.00,,,0.00,Weather View 32 v70,2013-01-24 16:44:00,
2013-01-24 10:49:00,2.5,-6.3,30.64,SE,135,4.0,17.0,66,0.00,,,0.00,Weather View 32 v70,2013-01-24 16:49:00,
2013-01-24 10:54:00,2.8,-5.7,30.63,SE,135,6.0,17.0,67,0.00,,,0.00,Weather View 32 v70,2013-01-24 16:54:00,
2013-01-24 10:59:00,2.8,-6.0,30.63,ESE,112,6.0,17.0,66,0.00,,,0.00,Weather View 32 v70,2013-01-24 16:59:00,
2013-01-24 11:04:00,2.9,-5.9,30.63,ESE,112,12.0,17.0,66,0.00,,,0.00,Weather View 32 v70,2013-01-24 17:04:00,
2013-01-24 11:09:00,3.1,-5.7,30.62,ESE,112,12.0,17.0,66,0.00,,,0.00,Weather View 32 v70,2013-01-24 17:09:00,
2013-01-24 11:14:00,3.4,-5.4,30.62,SSE,157,7.0,17.0,66,0.00,,,0.00,Weather View 32 v70,2013-01-24 17:14:00,
2013-01-24 11:19:00,3.5,-5.3,30.61,ESE,112,8.0,19.0,66,0.00,,,0.00,Weather View 32 v70,2013-01-24 17:19:00,
2013-01-24 11:24:00,3.7,-5.1,30.62,ESE,112,7.0,19.0,66,0.00,,,0.00,Weather View 32 v70,2013-01-24 17:24:00,
2013-01-24 11:29:00,3.9,-4.9,30.61,East,90,4.0,19.0,66,0.00,,,0.00,Weather View 32 v70,2013-01-24 17:29:00,
2013-01-24 11:34:00,4.1,-4.7,30.60,SE,135,6.0,19.0,66,0.00,,,0.00,Weather View 32 v70,2013-01-24 17:34:00,
2013-01-24 11:39:00,4.4,-4.4,30.60,SE,135,6.0,19.0,66,0.00,,,0.00,Weather View 32 v70,2013-01-24 17:39:00,
2013-01-24 11:44:00,4.4,-4.4,30.60,ESE,112,9.0,19.0,66,0.00,,,0.00,Weather View 32 v70,2013-01-24 17:44:00,
2013-01-24 11:49:00,4.9,-4.0,30.60,ESE,112,7.0,19.0,66,0.00,,,0.00,Weather View 32 v70,2013-01-24 17:49:00,
2013-01-24 11:54:00,5.1,-3.8,30.60,ESE,112,9.0,19.0,66,0.00,,,0.00,Weather View 32 v70,2013-01-24 17:54:00,
2013-01-24 11:59:00,5.1,-4.1,30.60,ESE,112,12.0,19.0,65,0.00,,,0.00,Weather View 32 v70,2013-01-24 17:59:00,
2013-01-24 12:04:00,5.2,-4.0,30.59,SE,135,4.0,19.0,65,0.00,,,0.00,Weather View 32 v70,2013-01-24 18:04:00,
2013-01-24 12:09:00,5.3,-3.9,30.59,East,90,6.0,19.0,65,0.00,,,0.00,Weather View 32 v70,2013-01-24 18:09:00,
2013-01-24 12:14:00,5.6,-3.9,30.57,ESE,112,11.0,19.0,64,0.00,,,0.00,Weather View 32 v70,2013-01-24 18:14:00,
2013-01-24 12:19:00,5.9,-3.6,30.55,ESE,112,12.0,19.0,64,0.00,,,0.00,Weather View 32 v70,2013-01-24 18:19:00,
2013-01-24 12:24:00,5.9,-3.3,30.55,SE,135,12.0,18.0,65,0.00,,,0.00,Weather View 32 v70,2013-01-24 18:24:00,
2013-01-24 12:29:00,6.5,-3.4,30.55,SE,135,9.0,18.0,63,0.00,,,0.00,Weather View 32 v70,2013-01-24 18:29:00,
2013-01-24 12:34:00,6.6,-3.0,30.54,ESE,112,14.0,18.0,64,0.00,,,0.00,Weather View 32 v70,2013-01-24 18:34:00,
2013-01-24 12:39:00,6.8,-3.1,30.53,SE,135,10.0,18.0,63,0.00,,,0.00,Weather View 32 v70,2013-01-24 18:39:00,
2013-01-24 12:45:00,6.8,-3.1,30.53,ESE,112,9.0,18.0,63,0.00,,,0.00,Weather View 32 v70,2013-01-24 18:45:00,
2013-01-24 12:50:00,7.5,-2.1,30.53,SE,135,6.0,18.0,64,0.00,,,0.00,Weather View 32 v70,2013-01-24 18:50:00,
2013-01-24 12:55:00,7.5,-2.8,30.52,ESE,112,6.0,18.0,62,0.00,,,0.00,Weather View 32 v70,2013-01-24 18:55:00,
2013-01-24 13:00:00,7.6,-2.7,30.52,SE,135,4.0,18.0,62,0.00,,,0.00,Weather View 32 v70,2013-01-24 19:00:00,
2013-01-24 13:05:00,7.9,-2.4,30.52,SE,135,11.0,18.0,62,0.00,,,0.00,Weather View 32 v70,2013-01-24 19:05:00,
2013-01-24 13:10:00,7.9,-2.4,30.52,ESE,112,5.0,18.0,62,0.00,,,0.00,Weather View 32 v70,2013-01-24 19:10:00,
2013-01-24 13:15:00,8.4,-2.3,30.51,ESE,112,8.0,18.0,61,0.00,,,0.00,Weather View 32 v70,2013-01-24 19:15:00,
2013-01-24 13:20:00,8.4,-2.3,30.51,ESE,112,7.0,18.0,61,0.00,,,0.00,Weather View 32 v70,2013-01-24 19:20:00,
2013-01-24 13:25:00,8.7,-1.6,30.50,ESE,112,6.0,17.0,62,0.00,,,0.00,Weather View 32 v70,2013-01-24 19:25:00,
2013-01-24 13:30:00,8.8,-1.9,30.50,East,90,9.0,17.0,61,0.00,,,0.00,Weather View 32 v70,2013-01-24 19:30:00,
2013-01-24 13:35:00,8.7,-2.0,30.49,ESE,112,9.0,17.0,61,0.00,,,0.00,Weather View 32 v70,2013-01-24 19:35:00,
2013-01-24 13:40:00,8.7,-2.0,30.49,SE,135,4.0,18.0,61,0.00,,,0.00,Weather View 32 v70,2013-01-24 19:40:00,
2013-01-24 13:45:00,8.7,-2.0,30.49,ESE,112,7.0,18.0,61,0.00,,,0.00,Weather View 32 v70,2013-01-24 19:45:00,
2013-01-24 13:50:00,8.9,-1.8,30.49,SE,135,7.0,18.0,61,0.00,,,0.00,Weather View 32 v70,2013-01-24 19:50:00,
2013-01-24 13:55:00,9.1,-2.0,30.49,SE,135,4.0,18.0,60,0.00,,,0.00,Weather View 32 v70,2013-01-24 19:55:00,
2013-01-24 14:00:00,9.2,-1.5,30.47,ESE,112,11.0,18.0,61,0.00,,,0.00,Weather View 32 v70,2013-01-24 20:00:00,
2013-01-24 14:05:00,9.3,-1.8,30.47,SE,135,9.0,18.0,60,0.00,,,0.00,Weather View 32 v70,2013-01-24 20:05:00,
2013-01-24 14:10:00,9.2,-1.5,30.46,ESE,112,10.0,18.0,61,0.00,,,0.00,Weather View 32 v70,2013-01-24 20:10:00,
2013-01-24 14:15:00,9.3,-1.4,30.45,SE,135,4.0,18.0,61,0.00,,,0.00,Weather View 32 v70,2013-01-24 20:15:00,
2013-01-24 14:20:00,9.7,-1.0,30.45,SE,135,6.0,18.0,61,0.00,,,0.00,Weather View 32 v70,2013-01-24 20:20:00,
2013-01-24 14:25:00,10.1,-0.3,30.45,East,90,7.0,18.0,62,0.00,,,0.00,Weather View 32 v70,2013-01-24 20:25:00,
2013-01-24 14:30:00,10.1,-0.7,30.44,SE,135,17.0,18.0,61,0.00,,,0.00,Weather View 32 v70,2013-01-24 20:30:00,
2013-01-24 14:35:00,10.1,-1.0,30.44,ESE,112,7.0,19.0,60,0.00,,,0.00,Weather View 32 v70,2013-01-24 20:35:00,
2013-01-24 14:40:00,10.1,-1.0,30.44,SE,135,17.0,19.0,60,0.00,,,0.00,Weather View 32 v70,2013-01-24 20:40:00,
2013-01-24 14:45:00,10.2,-0.9,30.43,ESE,112,6.0,19.0,60,0.00,,,0.00,Weather View 32 v70,2013-01-24 20:45:00,
2013-01-24 14:50:00,10.4,-0.4,30.42,East,90,12.0,19.0,61,0.00,,,0.00,Weather View 32 v70,2013-01-24 20:50:00,
2013-01-24 14:55:00,10.4,-0.7,30.43,ESE,112,14.0,19.0,60,0.00,,,0.00,Weather View 32 v70,2013-01-24 20:55:00,
2013-01-24 15:00:00,10.6,-1.3,30.41,SE,135,10.0,19.0,58,0.00,,,0.00,Weather View 32 v70,2013-01-24 21:00:00,
2013-01-24 15:05:00,10.7,-0.8,30.41,East,90,9.0,19.0,59,0.00,,,0.00,Weather View 32 v70,2013-01-24 21:05:00,
2013-01-24 15:10:00,10.9,-0.3,30.40,SE,135,4.0,19.0,60,0.00,,,0.00,Weather View 32 v70,2013-01-24 21:10:00,
2013-01-24 15:15:00,11.1,-1.2,30.40,ESE,112,11.0,19.0,57,0.00,,,0.00,Weather View 32 v70,2013-01-24 21:15:00,
2013-01-24 15:20:00,11.1,-1.2,30.40,SE,135,11.0,19.0,57,0.00,,,0.00,Weather View 32 v70,2013-01-24 21:20:00,
2013-01-24 15:25:00,11.2,-0.7,30.40,ESE,112,10.0,19.0,58,0.00,,,0.00,Weather View 32 v70,2013-01-24 21:25:00,
2013-01-24 15:30:00,11.3,-1.0,30.40,ESE,112,12.0,19.0,57,0.00,,,0.00,Weather View 32 v70,2013-01-24 21:30:00,
2013-01-24 15:35:00,11.5,-0.4,30.40,East,90,6.0,19.0,58,0.00,,,0.00,Weather View 32 v70,2013-01-24 21:35:00,
2013-01-24 15:40:00,11.6,-1.1,30.39,ESE,112,7.0,19.0,56,0.00,,,0.00,Weather View 32 v70,2013-01-24 21:40:00,
2013-01-24 15:45:00,11.8,-0.5,30.39,ESE,112,14.0,19.0,57,0.00,,,0.00,Weather View 32 v70,2013-01-24 21:45:00,
2013-01-24 15:50:00,11.9,-0.8,30.38,SE,135,12.0,19.0,56,0.00,,,0.00,Weather View 32 v70,2013-01-24 21:50:00,
2013-01-24 15:55:00,11.9,-0.8,30.37,SE,135,6.0,19.0,56,0.00,,,0.00,Weather View 32 v70,2013-01-24 21:55:00,
2013-01-24 16:00:00,12.1,-0.6,30.36,SE,135,12.0,19.0,56,0.00,,,0.00,Weather View 32 v70,2013-01-24 22:00:00,
2013-01-24 16:05:00,12.3,0.0,30.36,ESE,112,10.0,19.0,57,0.00,,,0.00,Weather View 32 v70,2013-01-24 22:05:00,
2013-01-24 16:10:00,12.4,-0.3,30.37,East,90,10.0,19.0,56,0.00,,,0.00,Weather View 32 v70,2013-01-24 22:10:00,
2013-01-24 16:15:00,12.6,0.3,30.37,ESE,112,8.0,19.0,57,0.00,,,0.00,Weather View 32 v70,2013-01-24 22:15:00,
2013-01-24 16:20:00,12.7,0.0,30.37,East,90,7.0,19.0,56,0.00,,,0.00,Weather View 32 v70,2013-01-24 22:20:00,
2013-01-24 16:25:00,12.8,0.1,30.37,East,90,10.0,19.0,56,0.00,,,0.00,Weather View 32 v70,2013-01-24 22:25:00,
2013-01-24 16:30:00,12.9,-0.2,30.36,ESE,112,9.0,19.0,55,0.00,,,0.00,Weather View 32 v70,2013-01-24 22:30:00,
2013-01-24 16:35:00,13.2,0.1,30.36,East,90,6.0,19.0,55,0.00,,,0.00,Weather View 32 v70,2013-01-24 22:35:00,
2013-01-24 16:40:00,13.2,0.1,30.36,East,90,12.0,19.0,55,0.00,,,0.00,Weather View 32 v70,2013-01-24 22:40:00,
2013-01-24 16:45:00,13.4,0.2,30.36,SE,135,9.0,19.0,55,0.00,,,0.00,Weather View 32 v70,2013-01-24 22:45:00,
2013-01-24 16:50:00,13.5,0.3,30.35,ESE,112,3.0,19.0,55,0.00,,,0.00,Weather View 32 v70,2013-01-24 22:50:00,
2013-01-24 16:55:00,13.6,0.4,30.36,ESE,112,16.0,19.0,55,0.00,,,0.00,Weather View 32 v70,2013-01-24 22:55:00,
2013-01-24 17:00:00,13.7,0.5,30.35,ESE,112,7.0,21.0,55,0.00,,,0.00,Weather View 32 v70,2013-01-24 23:00:00,
2013-01-24 17:05:00,13.8,0.6,30.34,SE,135,7.0,21.0,55,0.00,,,0.00,Weather View 32 v70,2013-01-24 23:05:00,
2013-01-24 17:10:00,13.9,0.7,30.34,SE,135,7.0,21.0,55,0.00,,,0.00,Weather View 32 v70,2013-01-24 23:10:00,
2013-01-24 17:15:00,14.1,0.9,30.34,ESE,112,7.0,21.0,55,0.00,,,0.00,Weather View 32 v70,2013-01-24 23:15:00,
2013-01-24 17:20:00,14.2,1.0,30.34,SE,135,5.0,21.0,55,0.00,,,0.00,Weather View 32 v70,2013-01-24 23:20:00,
2013-01-24 17:25:00,14.3,1.5,30.34,ESE,112,5.0,21.0,56,0.00,,,0.00,Weather View 32 v70,2013-01-24 23:25:00,
2013-01-24 17:30:00,14.4,1.6,30.33,SE,135,10.0,21.0,56,0.00,,,0.00,Weather View 32 v70,2013-01-24 23:30:00,
2013-01-24 17:35:00,14.5,1.3,30.33,ESE,112,16.0,21.0,55,0.00,,,0.00,Weather View 32 v70,2013-01-24 23:35:00,
2013-01-24 17:40:00,14.4,1.2,30.32,ESE,112,7.0,21.0,55,0.00,,,0.00,Weather View 32 v70,2013-01-24 23:40:00,
2013-01-24 17:46:00,14.5,1.3,30.32,ESE,112,6.0,21.0,55,0.00,,,0.00,Weather View 32 v70,2013-01-24 23:46:00,
2013-01-24 17:51:00,14.5,1.3,30.32,SE,135,3.0,21.0,55,0.00,,,0.00,Weather View 32 v70,2013-01-24 23:51:00,
2013-01-24 17:56:00,14.6,1.4,30.32,East,90,10.0,21.0,55,0.00,,,0.00,Weather View 32 v70,2013-01-24 23:56:00,
2013-01-24 18:01:00,14.6,1.4,30.32,ESE,112,8.0,18.0,55,0.00,,,0.00,Weather View 32 v70,2013-01-25 00:01:00,
2013-01-24 18:06:00,14.6,1.0,30.32,SE,135,4.0,18.0,54,0.00,,,0.00,Weather View 32 v70,2013-01-25 00:06:00,
2013-01-24 18:11:00,14.6,1.4,30.32,ESE,112,8.0,18.0,55,0.00,,,0.00,Weather View 32 v70,2013-01-25 00:11:00,
2013-01-24 18:16:00,14.6,1.4,30.31,ESE,112,11.0,18.0,55,0.00,,,0.00,Weather View 32 v70,2013-01-25 00:16:00,
2013-01-24 18:21:00,14.7,1.5,30.31,SE,135,7.0,18.0,55,0.00,,,0.00,Weather View 32 v70,2013-01-25 00:21:00,
2013-01-24 18:26:00,14.7,1.5,30.31,SE,135,9.0,18.0,55,0.00,,,0.00,Weather View 32 v70,2013-01-25 00:26:00,
2013-01-24 18:31:00,14.7,1.5,30.31,SE,135,8.0,18.0,55,0.00,,,0.00,Weather View 32 v70,2013-01-25 00:31:00,
2013-01-24 18:36:00,14.7,1.5,30.31,SE,135,4.0,18.0,55,0.00,,,0.00,Weather View 32 v70,2013-01-25 00:36:00,
2013-01-24 18:41:00,14.7,1.5,30.30,SE,135,7.0,19.0,55,0.00,,,0.00,Weather View 32 v70,2013-01-25 00:41:00,
2013-01-24 18:46:00,14.7,1.5,30.30,SE,135,7.0,19.0,55,0.00,,,0.00,Weather View 32 v70,2013-01-25 00:46:00,
2013-01-24 18:51:00,14.7,1.5,30.29,SE,135,9.0,19.0,55,0.00,,,0.00,Weather View 32 v70,2013-01-25 00:51:00,
2013-01-24 18:56:00,14.7,1.5,30.29,SE,135,7.0,19.0,55,0.00,,,0.00,Weather View 32 v70,2013-01-25 00:56:00,
2013-01-24 19:01:00,14.7,1.9,30.29,SE,135,12.0,19.0,56,0.00,,,0.00,Weather View 32 v70,2013-01-25 01:01:00,
2013-01-24 19:06:00,14.8,1.6,30.29,SE,135,14.0,19.0,55,0.00,,,0.00,Weather View 32 v70,2013-01-25 01:06:00,
2013-01-24 19:11:00,14.9,1.7,30.30,SE,135,3.0,19.0,55,0.00,,,0.00,Weather View 32 v70,2013-01-25 01:11:00,
2013-01-24 19:16:00,14.9,1.7,30.31,SE,135,9.0,19.0,55,0.00,,,0.00,Weather View 32 v70,2013-01-25 01:16:00,
2013-01-24 19:21:00,14.9,1.7,30.32,SE,135,6.0,19.0,55,0.00,,,0.00,Weather View 32 v70,2013-01-25 01:21:00,
2013-01-24 19:26:00,15.1,1.8,30.32,SE,135,7.0,19.0,55,0.00,,,0.00,Weather View 32 v70,2013-01-25 01:26:00,
2013-01-24 19:31:00,15.1,2.2,30.34,SSE,157,2.0,19.0,56,0.00,,,0.00,Weather View 32 v70,2013-01-25 01:31:00,
2013-01-24 19:36:00,15.2,2.3,30.34,SE,135,0.0,19.0,56,0.00,,,0.00,Weather View 32 v70,2013-01-25 01:36:00,
2013-01-24 19:41:00,15.1,2.2,30.34,SSW,202,2.0,19.0,56,0.00,,,0.00,Weather View 32 v70,2013-01-25 01:41:00,
2013-01-24 19:46:00,15.1,2.2,30.33,SE,135,4.0,19.0,56,0.00,,,0.00,Weather View 32 v70,2013-01-25 01:46:00,
2013-01-24 19:51:00,15.1,2.2,30.33,SE,135,2.0,19.0,56,0.00,,,0.00,Weather View 32 v70,2013-01-25 01:51:00,
2013-01-24 19:56:00,15.1,2.6,30.33,SSE,157,2.0,16.0,57,0.00,,,0.00,Weather View 32 v70,2013-01-25 01:56:00,
2013-01-24 20:01:00,15.1,2.6,30.34,SE,135,1.0,16.0,57,0.00,,,0.00,Weather View 32 v70,2013-01-25 02:01:00,
2013-01-24 20:06:00,14.9,2.8,30.33,SSE,157,1.0,16.0,58,0.00,,,0.00,Weather View 32 v70,2013-01-25 02:06:00,
2013-01-24 20:11:00,14.9,2.8,30.34,SSE,157,2.0,15.0,58,0.00,,,0.00,Weather View 32 v70,2013-01-25 02:11:00,
2013-01-24 20:16:00,15.1,3.0,30.34,SSE,157,1.0,14.0,58,0.00,,,0.00,Weather View 32 v70,2013-01-25 02:16:00,
2013-01-24 20:21:00,15.1,3.0,30.34,South,180,1.0,12.0,58,0.00,,,0.00,Weather View 32 v70,2013-01-25 02:21:00,
2013-01-24 20:26:00,15.1,3.4,30.34,SSE,157,1.0,10.0,59,0.00,,,0.00,Weather View 32 v70,2013-01-25 02:26:00,
2013-01-24 20:31:00,15.1,3.4,30.34,SSE,157,4.0,10.0,59,0.00,,,0.00,Weather View 32 v70,2013-01-25 02:31:00,
2013-01-24 20:36:00,15.1,3.4,30.33,SE,135,2.0,9.0,59,0.00,,,0.00,Weather View 32 v70,2013-01-25 02:36:00,
2013-01-24 20:42:00,15.1,3.7,30.33,South,180,2.0,9.0,60,0.00,,,0.00,Weather View 32 v70,2013-01-25 02:42:00,
2013-01-24 20:47:00,15.1,4.1,30.33,East,90,1.0,9.0,61,0.00,,,0.00,Weather View 32 v70,2013-01-25 02:47:00,
2013-01-24 20:52:00,15.1,4.4,30.34,South,180,4.0,9.0,62,0.00,,,0.00,Weather View 32 v70,2013-01-25 02:52:00,
2013-01-24 20:57:00,15.1,4.4,30.34,SSE,157,1.0,9.0,62,0.00,,,0.00,Weather View 32 v70,2013-01-25 02:57:00,
2013-01-24 21:02:00,15.1,4.4,30.34,SSW,202,1.0,9.0,62,0.00,,,0.00,Weather View 32 v70,2013-01-25 03:02:00,
2013-01-24 21:07:00,15.1,4.4,30.34,South,180,3.0,9.0,62,0.00,,,0.00,Weather View 32 v70,2013-01-25 03:07:00,
2013-01-24 21:12:00,15.1,4.1,30.33,SE,135,2.0,9.0,61,0.00,,,0.00,Weather View 32 v70,2013-01-25 03:12:00,
2013-01-24 21:17:00,15.1,4.4,30.34,South,180,2.0,9.0,62,0.00,,,0.00,Weather View 32 v70,2013-01-25 03:17:00,
2013-01-24 21:22:00,15.1,4.4,30.34,SE,135,6.0,9.0,62,0.00,,,0.00,Weather View 32 v70,2013-01-25 03:22:00,
2013-01-24 21:27:00,15.2,4.5,30.34,SE,135,2.0,9.0,62,0.00,,,0.00,Weather View 32 v70,2013-01-25 03:27:00,
2013-01-24 21:32:00,15.2,4.9,30.34,South,180,4.0,9.0,63,0.00,,,0.00,Weather View 32 v70,2013-01-25 03:32:00,
2013-01-24 21:37:00,15.2,4.9,30.34,South,180,2.0,9.0,63,0.00,,,0.00,Weather View 32 v70,2013-01-25 03:37:00,
2013-01-24 21:42:00,15.2,4.5,30.34,SSE,157,2.0,9.0,62,0.00,,,0.00,Weather View 32 v70,2013-01-25 03:42:00,
2013-01-24 21:47:00,15.2,4.5,30.33,SE,135,2.0,9.0,62,0.00,,,0.00,Weather View 32 v70,2013-01-25 03:47:00,
2013-01-24 21:52:00,15.3,4.6,30.32,ESE,112,5.0,8.0,62,0.00,,,0.00,Weather View 32 v70,2013-01-25 03:52:00,
2013-01-24 21:57:00,15.3,4.6,30.32,SE,135,3.0,7.0,62,0.00,,,0.00,Weather View 32 v70,2013-01-25 03:57:00,
2013-01-24 22:02:00,15.3,4.6,30.33,SE,135,2.0,7.0,62,0.00,,,0.00,Weather View 32 v70,2013-01-25 04:02:00,
2013-01-24 22:07:00,15.4,5.1,30.33,SW,225,1.0,8.0,63,0.00,,,0.00,Weather View 32 v70,2013-01-25 04:07:00,
2013-01-24 22:12:00,15.4,4.7,30.33,SE,135,4.0,8.0,62,0.00,,,0.00,Weather View 32 v70,2013-01-25 04:12:00,
2013-01-24 22:17:00,15.4,4.7,30.32,South,180,4.0,8.0,62,0.00,,,0.00,Weather View 32 v70,2013-01-25 04:17:00,
2013-01-24 22:22:00,15.5,5.2,30.32,SSE,157,2.0,9.0,63,0.00,,,0.00,Weather View 32 v70,2013-01-25 04:22:00,
2013-01-24 22:27:00,15.5,4.8,30.32,SE,135,2.0,9.0,62,0.00,,,0.00,Weather View 32 v70,2013-01-25 04:27:00,
2013-01-24 22:32:00,15.6,5.3,30.33,SSE,157,2.0,9.0,63,0.00,,,0.00,Weather View 32 v70,2013-01-25 04:32:00,
2013-01-24 22:37:00,15.6,5.3,30.34,SE,135,4.0,9.0,63,0.00,,,0.00,Weather View 32 v70,2013-01-25 04:37:00,
2013-01-24 22:42:00,15.7,5.3,30.33,SE,135,2.0,9.0,63,0.00,,,0.00,Weather View 32 v70,2013-01-25 04:42:00,
2013-01-24 22:47:00,15.7,5.0,30.33,SE,135,6.0,9.0,62,0.00,,,0.00,Weather View 32 v70,2013-01-25 04:47:00,
2013-01-24 22:52:00,15.7,5.0,30.33,SE,135,7.0,9.0,62,0.00,,,0.00,Weather View 32 v70,2013-01-25 04:52:00,
2013-01-24 22:57:00,15.7,5.0,30.32,SE,135,3.0,10.0,62,0.00,,,0.00,Weather View 32 v70,2013-01-25 04:57:00,
2013-01-24 23:01:00,15.8,5.1,30.31,SW,225,7.0,10.0,62,0.00,,,0.00,Weather View 32 v70,2013-01-25 05:01:00,
2013-01-24 23:02:00,15.7,5.0,30.31,SSE,157,6.0,10.0,62,0.00,,,0.00,Weather View 32 v70,2013-01-25 05:02:00,
2013-01-24 23:03:00,15.7,5.0,30.31,SE,135,1.0,10.0,62,0.00,,,0.00,Weather View 32 v70,2013-01-25 05:03:00,
2013-01-24 23:08:00,15.7,5.0,30.31,SSE,157,7.0,10.0,62,0.00,,,0.00,Weather View 32 v70,2013-01-25 05:08:00,
2013-01-24 23:13:00,15.7,5.3,30.31,SE,135,2.0,10.0,63,0.00,,,0.00,Weather View 32 v70,2013-01-25 05:13:00,
2013-01-24 23:18:00,15.8,5.1,30.31,ESE,112,1.0,10.0,62,0.00,,,0.00,Weather View 32 v70,2013-01-25 05:18:00,
2013-01-24 23:23:00,15.8,5.1,30.31,SE,135,3.0,10.0,62,0.00,,,0.00,Weather View 32 v70,2013-01-25 05:23:00,
2013-01-24 23:28:00,15.8,5.1,30.30,South,180,2.0,10.0,62,0.00,,,0.00,Weather View 32 v70,2013-01-25 05:28:00,
2013-01-24 23:33:00,15.8,5.1,30.31,SE,135,2.0,10.0,62,0.00,,,0.00,Weather View 32 v70,2013-01-25 05:33:00,
2013-01-24 23:38:00,15.8,5.1,30.31,SE,135,1.0,10.0,62,0.00,,,0.00,Weather View 32 v70,2013-01-25 05:38:00,
2013-01-24 23:43:00,15.8,5.4,30.31,ESE,112,5.0,10.0,63,0.00,,,0.00,Weather View 32 v70,2013-01-25 05:43:00,
2013-01-24 23:48:00,15.8,5.1,30.30,SE,135,1.0,10.0,62,0.00,,,0.00,Weather View 32 v70,2013-01-25 05:48:00,
2013-01-24 23:53:00,15.8,5.4,30.29,SE,135,4.0,10.0,63,0.00,,,0.00,Weather View 32 v70,2013-01-25 05:53:00,
2013-01-24 23:58:00,15.7,5.3,30.29,SSE,157,1.0,9.0,63,0.00,,,0.00,Weather View 32 v70,2013-01-25 05:58:00,